EST,Max TemperatureF,Mean TemperatureF,Min TemperatureF,Max Dew PointF,MeanDew PointF,Min DewpointF,Max Humidity, Mean Humidity, Min Humidity, Max Sea Level PressureIn, Mean Sea Level PressureIn, Min Sea Level PressureIn, Max VisibilityMiles, Mean VisibilityMiles, Min VisibilityMiles, Max Wind SpeedMPH, Mean Wind SpeedMPH, Max Gust SpeedMPH,PrecipitationIn, CloudCover, Events, WindDirDegrees
2013-1-1,44,40,36,28,27,23,65,58,51,30.00,29.95,29.89,10,10,10,14,9,21,0.00,3,,301
2013-1-2,36,32,23,21,16,14,72,54,41,30.23,30.10,29.99,10,10,10,13,6,21,0.00,0,,315
2013-1-3,35,30,24,21,17,12,77,59,40,30.24,30.19,30.14,10,10,8,12,5,21,0.00,0,,272
2013-1-4,39,33,27,23,21,19,78,61,46,30.18,30.12,30.06,10,10,10,20,9,29,0.00,4,,266
2013-1-5,39,32,24,28,21,19,84,65,43,30.37,30.27,30.11,10,10,8,10,5,18,0.00,0,,282
2013-1-6,48,38,28,33,28,24,100,77,38,30.23,30.12,30.03,10,7,2,14,2,,0.00,4,Rain,272
2013-1-7,46,35,24,29,25,20,88,66,44,30.44,30.32,30.11,10,10,8,13,6,18,0.00,2,,302
2013-1-8,51,36,21,34,27,18,92,72,46,30.44,30.41,30.38,10,9,6,12,2,21,0.00,2,,244
2013-1-9,55,42,28,43,35,25,92,71,53,30.40,30.32,30.21,10,9,6,9,2,,0.00,3,,239
2013-1-10,50,41,30,33,28,26,85,62,39,30.56,30.49,30.34,10,10,10,13,6,17,0.00,0,,293
2013-1-11,51,39,27,50,41,24,100,90,63,30.51,30.24,30.07,10,6,1,10,2,17,0.22,6,Rain,128
2013-1-12,53,47,41,47,44,39,100,93,77,30.17,30.13,30.08,10,4,0,7,5,,0.00,6,Fog,333
2013-1-13,53,48,42,52,46,41,100,95,86,30.16,30.09,30.00,10,2,0,8,3,,0.01,8,Fog,149
2013-1-14,59,52,43,57,49,37,100,86,58,30.27,30.10,29.99,10,6,0,12,4,21,0.13,7,Fog-Rain,307
2013-1-15,42,38,35,40,36,32,93,89,76,30.34,30.27,30.18,10,5,2,12,8,,0.77,8,Rain,29
2013-1-16,39,37,35,38,35,33,97,94,89,30.14,30.01,29.84,10,6,2,12,8,,0.49,8,Rain,359
2013-1-17,43,40,36,39,34,29,97,80,58,30.12,30.05,29.98,10,8,4,9,2,,0.01,7,Rain,324
2013-1-18,37,29,21,32,19,10,86,61,35,30.52,30.35,30.03,10,10,7,16,8,28,0.00,2,,331
2013-1-19,51,40,30,29,26,18,76,57,36,30.44,30.24,30.00,10,10,10,12,6,18,0.00,0,,211
2013-1-20,57,46,34,30,23,13,60,42,27,30.09,29.90,29.79,10,10,10,20,10,30,0.00,0,,266
2013-1-21,37,32,26,27,18,9,93,62,35,30.12,29.95,29.81,10,8,0,18,6,25,0.00,5,Fog-Snow,350
2013-1-22,26,21,15,15,2,-3,63,46,37,30.28,30.12,29.90,10,10,10,18,11,31,0.00,1,,300
2013-1-23,21,14,6,8,1,-3,76,53,38,30.33,30.26,30.19,10,10,10,15,6,22,0.00,3,,295
2013-1-24,26,19,8,6,2,-3,76,50,30,30.48,30.30,30.13,10,10,10,18,7,28,0.00,3,,328
2013-1-25,23,16,10,16,9,1,88,69,40,30.48,30.28,30.08,10,6,0,9,3,,0.00,5,Fog-Snow,297
2013-1-26,28,16,3,16,10,-1,92,68,47,30.42,30.21,30.08,10,9,5,17,6,23,0.06,3,,311
2013-1-27,35,20,5,16,11,2,88,70,40,30.58,30.52,30.43,10,10,8,9,4,,0.01,0,,293
2013-1-28,39,34,30,36,32,28,93,91,85,30.52,30.29,30.06,10,4,0,7,2,,0.10,7,Rain-Snow,232
2013-1-29,57,45,33,48,39,32,100,88,67,30.16,30.09,30.04,10,5,1,8,1,16,0.00,4,,153
2013-1-30,62,54,46,55,51,44,94,86,75,30.00,29.72,29.39,10,8,3,13,6,25,0.00,3,,180
2013-1-31,59,44,28,56,36,9,94,66,34,29.91,29.46,29.17,10,8,1,29,17,41,0.60,4,Rain,245